Regional Weather Roundup
Issued by NWS New Orleans/Baton Rouge, LA

Home | Current Version | Previous Version | Text Only | Print | Product List | Glossary On
Versions: 1 2 3 4 5 6 7 8 9 10 11 12 13 14 15 16 17 18 19 20 21 22 23 24 25 26 27 28 29 30 31 32 33 34 35 36 37 38 39 40 41 42 43 44 45 46 47 48 49 50
059
ASUS44 KLIX 290005
RWRLIX
NEW ORLEANS REGIONAL WEATHER ROUNDUP
NATIONAL WEATHER SERVICE NEW ORLEANS LA
700 PM CDT MON JUL 28 2014

NOTE: "FAIR" INDICATES FEW OR NO CLOUDS BELOW 12,000 FEET WITH NO
      SIGNIFICANT WEATHER AND/OR OBSTRUCTIONS TO VISIBILITY.
      SKY/WX - SKY CONDITION AND SIGNIFICANT WEATHER.
      TMP - AIR TEMPERATURE.     DP    - DEWPOINT TEMPERATURE.
      RH  - RELATIVE HUMIDITY.   PRES  - PRESSURE.
      HI  - HEAT INDEX.          WCI   - WIND CHILL INDEX.

*  THESE STATIONS ARE NOT NWS OR FAA STATIONS AND ARE NOT UNDER
   NWS QUALITY CONTROL.

LAZ038-040-048-061>063-065>067-069-290100-
SOUTHEAST LOUISIANA

CITY           SKY/WX    TMP DP  RH WIND       PRES   REMARKS
N.O. AUDUBON     N/A     93  76  58 MISG        N/A  HX 105
6HR MIN TEMP:  92; 6HR MAX TEMP:  96;

N.O. INTL ARPT PTSUNNY   90  75  61 W8        29.97F HX 100
6HR MIN TEMP:  90; 6HR MAX TEMP:  94;

N.O. LAKEFRONT MOSUNNY   89  77  67 W13       29.97F HX 101
6HR MIN TEMP:  89; 6HR MAX TEMP:  91;

N.O. DOWNTOWN*   N/A     91  72  52 W8        29.97F HX  98
6HR MIN TEMP:  91; 6HR MAX TEMP:  97;

SLIDELL        MOSUNNY   89  77  67 W3        29.96S HX 101
6HR MIN TEMP:  81; 6HR MAX TEMP:  92; 6HR PCP: TRACE;

BATON ROUGE    CLOUDY    86  75  69 W8        29.99R HX  95
6HR MIN TEMP:  86; 6HR MAX TEMP:  94;

BOOTHVILLE     PTCLDY    86  80  82 W14G22    29.98F HX 101
6HR MIN TEMP:  86; 6HR MAX TEMP:  90;

BELLE CHASSE   MOSUNNY   89  74  60 W6        29.96F HX  98
6HR MIN TEMP:  89; 6HR MAX TEMP:  93;

BOGALUSA*        N/A     88  77  69 NW3       29.99R HX 100
6HR MIN TEMP:  88; 6HR MAX TEMP:  93;

GALLIANO*      NOT AVBL
NEW ROADS*     MOCLDY    85  75  74 N10       30.00R
6HR MIN TEMP:  85; 6HR MAX TEMP:  92;

GONZALES*        N/A     86  80  81 CALM      29.98S HX 100
6HR MIN TEMP:  86; 6HR MAX TEMP:  92;

HAMMOND*       MOSUNNY   90  73  58 NW6       30.00R HX  98
HOUMA*         MOSUNNY   90  73  58 W9        29.99  HX  98
PORT FOURCHON* CLEAR     88  77  70 W16       30.01S HX 100

$$

MSZ070-080>082-290100-
SOUTHERN MISSISSIPPI

CITY           SKY/WX    TMP DP  RH WIND       PRES   REMARKS
MCCOMB         PTSUNNY   82  74  76 NW6       30.00R
6HR MIN TEMP:  82; 6HR MAX TEMP:  91; 6HR PCP: TRACE;

GULFPORT       PTCLDY    92  75  57 W7        29.94F HX 103
6HR MIN TEMP:  92; 6HR MAX TEMP:  99;

BILOXI         PTCLDY    90  77  66 VRB2      29.95S HX 102
6HR MIN TEMP:  89; 6HR MAX TEMP:  94;

PASCAGOULA     MOCLDY    89  75  63 W6        29.94F HX  99
6HR MIN TEMP:  89; 6HR MAX TEMP:  95;


$$

COASTAL OBSERVATIONS
LAKE AND NEARSHORE STATIONS

STATION/POSITION TIME  TEMP    WIND        PRES    WAVE
                       AIR SEA DIR/SP/G            HT/PER
                 (UTC) (F)     (DEG/KT/KT) (MB)    (FT/S)
PASCAGOULA       0000   89     260/ 13/ 16 1013.4
WAVELAND YACHT   0000   89     280/  7/  8 1013.8
GRAND ISLE       0000   88 89  270/ 12/ 15 1016.2
SOUTHWEST PASS   0000   86 85  270/ 19/ 23 1016.0
NEW CANAL        0000   91 86  270/  4/  7 1015.3
SHELL BEACH      0000   89 84  250/  7/  9 1014.7

OFFSHORE STATIONS

STATION/POSITION TIME  TEMP    WIND        PRES    WAVE
                       AIR SEA DIR/SP/G            HT/PER
                 (UTC) (F)     (DEG/KT/KT) (MB)    (FT/S)

$$




USA.gov is the U.S. government's official web portal to all federal, state and local government web resources and services.